DW2465 Weather Reports


time (UTC)temp
C
wind
direction
speed
KPH
gust
KPH
rain 1hr
cm
rain 24hr
cm
rain mn
cm
humidity
%
barometer
mb
20260902164514 25 140 0.0 0.0 0.00 0.03 0.03 68 1011.3
20260902163012 24 140 0.0 0.0 0.00 0.03 0.03 68 1010.8
20260902161521 23 144 0.0 0.0 0.00 0.03 0.03 70 1010.7
20260902160043 24 136 0.0 0.0 0.00 0.03 0.03 69 1010.8
20260902154538 23 117 0.0 0.0 0.00 0.03 0.03 71 1010.8
20260902153033 23 169 0.0 0.0 0.00 0.03 0.03 71 1010.3
20260902151534 23 92 0.0 0.0 0.00 0.03 0.03 74 1010.4
20260902150028 22 82 0.0 0.0 0.00 0.03 0.03 74 1010.4
20260902144530 22 123 0.0 0.0 0.00 0.03 0.03 76 1010.3
20260902143021 22 123 0.0 0.0 0.00 0.03 0.03 77 1010.6
20260902141525 21 123 0.0 0.0 0.00 0.03 0.03 79 1010.8
20260902140018 21 105 0.0 0.0 0.00 0.03 0.03 81 1010.9
20260902134523 21 92 0.0 0.0 0.00 0.03 0.03 82 1010.8
20260902133020 20 141 0.0 0.0 0.00 0.03 0.03 84 1010.9
20260902131513 20 81 0.0 0.0 0.00 0.03 0.03 86 1010.7
20260902130014 19 88 0.0 0.0 0.00 0.03 0.03 88 1010.7
20260902124513 18 101 0.0 0.0 0.00 0.03 0.03 90 1010.8
20260902123042 18 78 0.0 0.0 0.00 0.03 0.03 90 1010.8
20260902121541 18 119 0.0 0.0 0.00 0.03 0.03 89 1010.9
20260902120040 18 119 0.0 0.0 0.00 0.03 0.03 89 1010.6
20260902114538 18 134 0.0 0.0 0.00 0.03 0.03 89 1010.4
20260902113037 18 134 0.0 0.0 0.00 0.03 0.03 89 1010.6
20260902111536 18 174 0.0 0.0 0.00 0.03 0.03 88 1011.0
20260902110037 18 160 0.0 0.0 0.00 0.03 0.03 87 1010.7
20260902104508 18 202 0.0 0.0 0.00 0.03 0.03 86 1011.1
20260902103004 18 203 0.0 0.0 0.00 0.03 0.03 85 1011.1
20260902101600 18 203 0.0 0.0 0.00 0.03 0.03 84 1011.8
20260902100059 18 207 0.0 0.0 0.00 0.03 0.03 83 1011.4
20260902094557 19 228 0.0 0.0 0.00 0.03 0.03 81 1011.4
20260902093053 19 166 0.0 0.0 0.00 0.03 0.03 79 1011.1
20260902091552 20 179 0.0 0.0 0.00 0.03 0.03 79 1010.1
20260902090050 20 44 0.0 0.0 0.00 0.03 0.03 79 1009.2
20260902084549 20 26 0.0 0.0 0.00 0.03 0.03 79 1009.3
20260902083046 20 99 0.0 0.0 0.00 0.03 0.03 79 1009.5
20260902081513 20 61 0.0 0.0 0.00 0.03 0.03 82 1009.8
20260902080012 20 109 0.0 0.0 0.00 0.03 0.03 84 1010.6
20260902074508 20 78 0.0 0.0 0.00 0.03 0.03 85 1010.1
20260902073008 20 100 0.0 0.0 0.03 0.03 0.03 85 1010.4
20260902071507 20 40 0.0 0.0 0.03 0.03 0.03 83 1009.8
20260902070004 21 92 0.0 0.0 0.03 0.03 0.03 82 1010.8
20260902064600 21 141 0.0 0.0 0.03 0.03 0.03 81 1011.7
20260902063114 21 124 0.0 0.0 0.00 0.00 0.00 79 1012.0
20260902061557 21 5 0.0 0.0 0.00 0.00 0.00 77 1011.9
20260902060107 21 5 0.0 0.0 0.00 0.00 0.00 76 1011.6
20260902054524 21 5 0.0 0.0 0.00 0.00 0.00 75 1010.8
20260902053028 21 5 0.0 0.0 0.00 0.00 0.00 77 1011.0
20260902051528 21 5 0.0 0.0 0.00 0.00 0.00 76 1011.0
20260902050016 21 5 0.0 0.0 0.00 0.00 0.00 73 1011.6
20260902044515 22 5 0.0 0.0 0.00 0.00 0.00 72 1011.7
20260902043014 22 5 0.0 0.0 0.00 0.00 0.00 73 1011.1
20260902041559 22 5 0.0 0.0 0.00 0.00 0.00 72 1010.6
20260902040043 22 5 0.0 0.0 0.00 0.00 0.00 70 1010.7
20260902034548 22 355 0.0 0.0 0.00 0.00 0.00 70 1010.6
20260902033041 22 344 0.0 0.0 0.00 0.00 0.00 69 1010.7
20260902031541 22 323 0.0 0.0 0.00 0.00 0.00 69 1011.2
20260902030041 22 324 0.0 0.0 0.00 0.00 0.00 68 1011.4
20260902024509 23 324 0.0 0.0 0.00 0.00 0.00 67 1011.3
20260902023008 23 324 0.0 0.0 0.00 0.00 0.00 70 1011.0
20260902021507 23 323 0.0 0.0 0.00 0.00 0.00 68 1011.0
20260902020006 24 307 0.0 0.0 0.00 0.00 0.00 65 1011.0
20260902014512 24 296 0.0 0.0 0.00 0.00 0.00 66 1011.1
20260902013004 24 290 0.0 0.0 0.00 0.00 0.00 66 1011.0
20260902011504 24 290 0.0 0.0 0.00 0.00 0.00 66 1010.9
20260902010002 24 290 0.0 0.0 0.00 0.00 0.00 65 1010.9
20260902004603 25 288 0.0 0.0 0.00 0.00 0.00 66 1010.8
20260902004501 25 289 0.0 0.0 0.00 0.00 0.00 66 1010.9
20260902003133 25 289 0.0 0.0 0.00 0.00 0.00 64 1010.9
20260902001559 25 289 0.0 0.0 0.00 0.00 0.00 62 1010.8
20260902000100 26 289 0.0 0.0 0.00 0.00 0.00 60 1010.8
20260901234556 26 286 0.0 0.0 0.00 0.00 0.00 59 1011.0
20260901233056 26 285 0.0 0.0 0.00 0.00 0.00 59 1011.0
20260901231600 26 282 0.0 0.0 0.00 0.00 0.00 58 1011.1
20260901230053 26 281 0.0 0.0 0.00 0.00 0.00 58 1011.1
20260901224552 27 280 0.0 0.0 0.00 0.00 0.00 58 1011.1
20260901223051 27 280 0.0 0.0 0.00 0.00 0.00 54 1011.0
20260901221548 27 280 0.0 0.0 0.00 0.00 0.00 53 1010.9
20260901220048 27 277 0.0 0.0 0.00 0.00 0.00 55 1010.9
20260901214546 28 265 0.0 0.0 0.00 0.00 0.00 52 1011.0
20260901213046 28 263 0.0 0.0 0.00 0.00 0.00 49 1011.0
20260901211546 28 271 0.0 0.0 0.00 0.00 0.00 47 1010.8
20260901210015 28 278 0.0 0.0 0.00 0.00 0.00 49 1010.9
20260901204515 28 281 0.0 0.0 0.00 0.00 0.00 45 1010.8
20260901203044 28 281 0.0 0.0 0.00 0.00 0.00 41 1010.7
20260901201541 30 248 0.0 0.0 0.00 0.00 0.00 40 1011.2
20260901200010 30 244 0.0 0.0 0.00 0.00 0.00 45 1011.1
20260901194508 29 303 0.0 0.0 0.00 0.00 0.00 45 1011.4
20260901193005 28 259 0.0 0.0 0.00 0.00 0.00 46 1011.5
20260901191614 28 263 0.0 0.0 0.00 0.00 0.00 47 1011.5
20260901190134 28 327 0.0 0.0 0.00 0.00 0.00 48 1011.6
20260901184559 28 330 0.0 0.0 0.00 0.00 0.00 46 1011.5
20260901183059 28 325 0.0 0.0 0.00 0.00 0.00 49 1011.5
20260901181558 28 327 0.0 0.0 0.00 0.00 0.00 50 1011.6
20260901180055 28 258 0.0 0.0 0.00 0.00 0.00 51 1012.0
20260901174556 27 110 0.0 0.0 0.00 0.00 0.00 53 1012.3
20260901173051 27 154 0.0 0.0 0.00 0.00 0.00 55 1012.4
20260901171559 27 205 0.0 0.0 0.00 0.00 0.00 53 1012.5
20260901170045 27 350 0.0 0.0 0.00 0.00 0.00 57 1012.6